Location: Dugenta
(41.1333°N, 14.4500°E)
Time: 11:21:49
(UTC+00:00)

YAOGAN 1 - Pass Details

Date: 03 March 2021
Orbit: 618 x 620 km, 97.9° (Epoch: 20 April)

Event Time Altitude Azimuth Distance (km) Brightness Sun altitude
Rises 17:35:28 0° 160° (SSE) 2,882 5.8 -8.3°
Reaches altitude 10° 17:37:39 10° 158° (SSE) 1,981 4.9 -8.7°
Maximum altitude 17:41:56 70° 75° (ENE) 664 2.5 -9.5°
Drops below altitude 10° 17:46:15 10° 352° (N) 1,996 5.3 -10.4°
Sets 17:48:27 0° 350° (N) 2,907 6.1 -10.8°
